VOZ1746 YBAS-YPAD

Flight info

Callsign VOZ1746
Flight time N/A
Altitude 39000
Route SADEL J251 WHA H84 MARGO BUGS1Z/05
Aircraft B738/M-SAE3DGHIM1RWZ/LB1

Departure

Time N/A
Airport Alice Springs Airport (YBAS)

Arrival

Time 2026-05-01 07:36
Airport Adelaide International Airport (YPAD)
Time Latitude Longitude Altitude Speed Heading
2026-05-01 07:23 -34.39567 138.03178 12136 ft 368 kts 162°
2026-05-01 07:23 -34.43947 138.06062 11336 ft 355 kts 140°
2026-05-01 07:24 -34.45907 138.07875 10893 ft 354 kts 140°
2026-05-01 07:24 -34.47865 138.09673 10466 ft 352 kts 140°
2026-05-01 07:24 -34.49790 138.11431 10306 ft 341 kts 140°
2026-05-01 07:24 -34.51658 138.13130 10142 ft 331 kts 140°
2026-05-01 07:25 -34.53476 138.14783 9998 ft 322 kts 140°
2026-05-01 07:25 -34.55257 138.16402 9679 ft 319 kts 140°
2026-05-01 07:25 -34.57001 138.17990 9341 ft 317 kts 140°
2026-05-01 07:25 -34.58755 138.19586 9016 ft 314 kts 140°
2026-05-01 07:26 -34.60498 138.21174 8691 ft 312 kts 140°
2026-05-01 07:26 -34.62221 138.22742 8366 ft 310 kts 140°
2026-05-01 07:26 -34.63963 138.24327 8052 ft 308 kts 140°
2026-05-01 07:26 -34.65647 138.25861 7744 ft 306 kts 140°
2026-05-01 07:27 -34.67345 138.27410 7421 ft 304 kts 140°
2026-05-01 07:27 -34.69028 138.28951 7108 ft 302 kts 140°
2026-05-01 07:27 -34.70707 138.30486 6803 ft 301 kts 140°
2026-05-01 07:27 -34.72377 138.32011 6491 ft 300 kts 140°
2026-05-01 07:28 -34.74042 138.33530 6178 ft 299 kts 140°
2026-05-01 07:28 -34.75700 138.35044 5856 ft 297 kts 140°
2026-05-01 07:28 -34.77351 138.36550 5536 ft 296 kts 140°
2026-05-01 07:28 -34.79151 138.37762 5194 ft 299 kts 164°
2026-05-01 07:29 -34.81200 138.37867 4996 ft 292 kts 192°
2026-05-01 07:29 -34.83096 138.37139 4869 ft 281 kts 205°
2026-05-01 07:29 -34.84882 138.36247 4741 ft 274 kts 205°
2026-05-01 07:29 -34.86634 138.35348 4460 ft 273 kts 206°
2026-05-01 07:30 -34.88386 138.34465 4194 ft 272 kts 205°
2026-05-01 07:30 -34.90131 138.33602 3988 ft 268 kts 205°
2026-05-01 07:30 -34.91833 138.32768 3861 ft 261 kts 205°
2026-05-01 07:30 -34.93494 138.31956 3740 ft 252 kts 205°
2026-05-01 07:31 -34.95103 138.31239 3619 ft 244 kts 194°
2026-05-01 07:31 -34.98938 138.33888 3198 ft 211 kts 119°
2026-05-01 07:32 -35.00535 138.36830 2797 ft 203 kts 118°
2026-05-01 07:32 -35.01264 138.38273 2558 ft 197 kts 110°
2026-05-01 07:33 -35.01791 138.41335 2069 ft 177 kts 78°
2026-05-01 07:33 -35.01552 138.42756 1834 ft 165 kts 63°
2026-05-01 07:33 -35.00512 138.44962 1464 ft 144 kts 43°
2026-05-01 07:34 -34.99874 138.45893 1305 ft 144 kts 43°
2026-05-01 07:34 -34.98611 138.47720 916 ft 145 kts 43°
2026-05-01 07:34 -34.97972 138.48645 735 ft 140 kts 47°
2026-05-01 07:35 -34.97344 138.49543 536 ft 140 kts 42°
2026-05-01 07:35 -34.96716 138.50424 303 ft 135 kts 46°
2026-05-01 07:35 -34.96127 138.51322 164 ft 137 kts 44°
2026-05-01 07:35 -34.95519 138.52209 24 ft 133 kts 49°
2026-05-01 07:36 -34.95064 138.52870 20 ft 71 kts 50°
2026-05-01 07:36 -34.94807 138.53244 24 ft 40 kts 50°
2026-05-01 07:36 -34.94658 138.53457 22 ft 24 kts 50°
2026-05-01 07:36 -34.94574 138.53512 20 ft 14 kts 333°
2026-05-01 07:37 -34.94471 138.53409 22 ft 9 kts
2026-05-01 07:37 -34.94426 138.53460 21 ft 9 kts 52°
2026-05-01 07:37 -34.94386 138.53518 23 ft 9 kts 50°
2026-05-01 07:38 -34.94341 138.53581 23 ft 10 kts 49°
2026-05-01 07:38 -34.94293 138.53652 23 ft 11 kts 50°
2026-05-01 07:38 -34.94197 138.53791 25 ft 14 kts 50°
2026-05-01 07:39 -34.94125 138.53897 26 ft 18 kts 50°
2026-05-01 07:39 -34.94050 138.54006 25 ft 16 kts 51°
2026-05-01 07:39 -34.93924 138.54153 26 ft 10 kts 357°
2026-05-01 07:40 -34.93858 138.54135 28 ft 10 kts 13°
2026-05-01 07:40 -34.93802 138.54150 27 ft 8 kts 335°
2026-05-01 07:40 -34.93771 138.54120 27 ft 3 kts 320°
2026-05-01 07:40 -34.93764 138.54112 27 ft 1 kts 321°
2026-05-01 07:41 -34.93760 138.54109 27 ft 0 kts 321°
2026-05-01 07:41 -34.93757 138.54106 30 ft 0 kts 321°
2026-05-01 07:42 -34.93756 138.54105 30 ft 0 kts 320°